| time (UTC) | temp F | wind direction | speed MPH | gust MPH | rain 1hr in | rain 24hr in | rain mn in | humidity % | barometer mb |
| 20260510172033 | 66 | 261 | 4.0 | 8.0 | 0.00 | 0.00 | 0.00 | 36 | 1018.8 |
| 20260510171028 | 67 | 258 | 4.0 | 9.0 | 0.00 | 0.00 | 0.00 | 36 | 1018.6 |
| 20260510170026 | 65 | 253 | 5.0 | 13.0 | 0.00 | 0.00 | 0.00 | 37 | 1018.7 |
| 20260510165022 | 66 | 252 | 4.0 | 10.0 | 0.00 | 0.00 | 0.00 | 39 | 1018.7 |
| 20260510164019 | 66 | 242 | 7.0 | 15.0 | 0.00 | 0.00 | 0.00 | 37 | 1018.7 |
| 20260510163055 | 65 | 263 | 4.0 | 10.0 | 0.00 | 0.00 | 0.00 | 37 | 1018.8 |
| 20260510162033 | 65 | 253 | 6.0 | 15.0 | 0.00 | 0.00 | 0.00 | 39 | 1018.7 |
| 20260510161028 | 64 | 244 | 6.0 | 13.0 | 0.00 | 0.00 | 0.00 | 39 | 1018.7 |
| 20260510160046 | 63 | 249 | 7.0 | 19.0 | 0.00 | 0.00 | 0.00 | 38 | 1018.7 |
| 20260510155021 | 63 | 255 | 4.0 | 8.0 | 0.00 | 0.00 | 0.00 | 41 | 1018.7 |
| 20260510154018 | 63 | 254 | 6.0 | 16.0 | 0.00 | 0.00 | 0.00 | 39 | 1018.6 |
| 20260510153035 | 62 | 253 | 6.0 | 14.0 | 0.00 | 0.00 | 0.00 | 40 | 1018.6 |
| 20260510152051 | 62 | 252 | 6.0 | 14.0 | 0.00 | 0.00 | 0.00 | 40 | 1018.6 |
| 20260510151028 | 62 | 238 | 6.0 | 15.0 | 0.00 | 0.00 | 0.00 | 43 | 1018.5 |
| 20260510150025 | 61 | 257 | 4.0 | 8.0 | 0.00 | 0.00 | 0.00 | 44 | 1018.4 |
| 20260510145022 | 61 | 264 | 4.0 | 14.0 | 0.00 | 0.00 | 0.00 | 46 | 1018.3 |
| 20260510144058 | 60 | 229 | 4.0 | 9.0 | 0.00 | 0.00 | 0.00 | 50 | 1018.2 |
| 20260510143055 | 60 | 233 | 6.0 | 14.0 | 0.00 | 0.00 | 0.00 | 51 | 1018.3 |
| 20260510142031 | 60 | 257 | 3.0 | 7.0 | 0.00 | 0.00 | 0.00 | 59 | 1018.3 |
| 20260510141028 | 59 | 243 | 1.0 | 6.0 | 0.00 | 0.00 | 0.00 | 65 | 1018.2 |
| 20260510140025 | 57 | 192 | 1.0 | 3.0 | 0.00 | 0.00 | 0.00 | 69 | 1018.3 |
| 20260510135023 | 55 | 244 | 0.0 | 2.0 | 0.00 | 0.00 | 0.00 | 72 | 1018.3 |
| 20260510134018 | 52 | 188 | 0.0 | 2.0 | 0.00 | 0.00 | 0.00 | 75 | 1018.3 |
| 20260510133035 | 49 | 0.0 | 0.0 | 0.00 | 0.00 | 0.00 | 77 | 1018.1 | |
| 20260510132052 | 48 | 0.0 | 0.0 | 0.00 | 0.00 | 0.00 | 77 | 1018.2 | |
| 20260510131028 | 48 | 102 | 1.0 | 2.0 | 0.00 | 0.00 | 0.00 | 79 | 1018.2 |
| 20260510130026 | 46 | 0.0 | 0.0 | 0.00 | 0.00 | 0.00 | 82 | 1018.3 | |
| 20260510125022 | 44 | 0.0 | 0.0 | 0.00 | 0.00 | 0.00 | 84 | 1018.2 | |
| 20260510124018 | 41 | 0.0 | 0.0 | 0.00 | 0.00 | 0.00 | 85 | 1018.1 | |
| 20260510123034 | 38 | 0.0 | 0.0 | 0.00 | 0.00 | 0.00 | 86 | 1017.9 | |
| 20260510122031 | 35 | 0.0 | 0.0 | 0.00 | 0.00 | 0.00 | 87 | 1017.9 | |
| 20260510121028 | 31 | 0.0 | 0.0 | 0.00 | 0.00 | 0.00 | 87 | 1017.9 | |
| 20260510120024 | 29 | 0.0 | 0.0 | 0.00 | 0.00 | 0.00 | 86 | 1017.9 | |
| 20260510115021 | 28 | 0.0 | 0.0 | 0.00 | 0.00 | 0.00 | 85 | 1017.8 | |
| 20260510114018 | 27 | 0.0 | 0.0 | 0.00 | 0.00 | 0.00 | 85 | 1017.6 | |
| 20260510113034 | 27 | 0.0 | 0.0 | 0.00 | 0.00 | 0.00 | 85 | 1017.6 | |
| 20260510112051 | 27 | 0.0 | 0.0 | 0.00 | 0.00 | 0.00 | 85 | 1017.6 | |
| 20260510111048 | 27 | 0.0 | 0.0 | 0.00 | 0.00 | 0.00 | 84 | 1017.6 | |
| 20260510110024 | 27 | 85 | 0.0 | 1.0 | 0.00 | 0.00 | 0.00 | 84 | 1017.5 |
| 20260510105021 | 27 | 85 | 1.0 | 2.0 | 0.00 | 0.00 | 0.00 | 84 | 1017.3 |
| 20260510104017 | 27 | 0.0 | 0.0 | 0.00 | 0.00 | 0.00 | 84 | 1017.1 | |
| 20260510103034 | 27 | 0.0 | 0.0 | 0.00 | 0.00 | 0.00 | 84 | 1017.0 | |
| 20260510102031 | 27 | 85 | 0.0 | 2.0 | 0.00 | 0.00 | 0.00 | 84 | 1017.0 |
| 20260510101048 | 27 | 0.0 | 0.0 | 0.00 | 0.00 | 0.00 | 84 | 1016.8 | |
| 20260510100024 | 28 | 0.0 | 0.0 | 0.00 | 0.00 | 0.00 | 83 | 1016.6 | |
| 20260510095022 | 28 | 0.0 | 0.0 | 0.00 | 0.00 | 0.00 | 83 | 1016.5 | |
| 20260510094018 | 28 | 0.0 | 0.0 | 0.00 | 0.00 | 0.00 | 83 | 1016.4 | |
| 20260510093054 | 28 | 84 | 0.0 | 1.0 | 0.00 | 0.00 | 0.00 | 83 | 1016.3 |
| 20260510092032 | 28 | 0.0 | 0.0 | 0.00 | 0.00 | 0.00 | 83 | 1016.2 | |
| 20260510091027 | 29 | 0.0 | 0.0 | 0.00 | 0.00 | 0.00 | 83 | 1016.1 | |
| 20260510090024 | 29 | 0.0 | 0.0 | 0.00 | 0.00 | 0.00 | 83 | 1015.9 | |
| 20260510085021 | 29 | 0.0 | 0.0 | 0.00 | 0.00 | 0.00 | 83 | 1015.7 | |
| 20260510084018 | 29 | 0.0 | 0.0 | 0.00 | 0.00 | 0.00 | 82 | 1015.8 | |
| 20260510083033 | 29 | 0.0 | 0.0 | 0.00 | 0.00 | 0.00 | 82 | 1015.5 | |
| 20260510082030 | 29 | 0.0 | 0.0 | 0.00 | 0.00 | 0.00 | 82 | 1015.4 | |
| 20260510081027 | 29 | 0.0 | 0.0 | 0.00 | 0.00 | 0.00 | 82 | 1015.4 | |
| 20260510080024 | 30 | 0.0 | 0.0 | 0.00 | 0.00 | 0.00 | 81 | 1015.2 | |
| 20260510075020 | 30 | 0.0 | 0.0 | 0.00 | 0.00 | 0.00 | 81 | 1015.0 | |
| 20260510074017 | 30 | 0.0 | 0.0 | 0.00 | 0.00 | 0.00 | 81 | 1014.9 | |
| 20260510073034 | 30 | 0.0 | 0.0 | 0.00 | 0.00 | 0.00 | 81 | 1014.7 | |
| 20260510072052 | 30 | 0.0 | 0.0 | 0.00 | 0.00 | 0.00 | 80 | 1014.7 | |
| 20260510071025 | 31 | 0.0 | 0.0 | 0.00 | 0.00 | 0.00 | 80 | 1014.6 | |
| 20260510070023 | 31 | 0.0 | 0.0 | 0.00 | 0.00 | 0.00 | 80 | 1014.6 | |
| 20260510065018 | 31 | 0.0 | 0.0 | 0.00 | 0.00 | 0.00 | 80 | 1014.3 | |
| 20260510064036 | 31 | 0.0 | 0.0 | 0.00 | 0.00 | 0.00 | 81 | 1014.3 | |
| 20260510063033 | 31 | 0.0 | 0.0 | 0.00 | 0.00 | 0.00 | 79 | 1014.3 | |
| 20260510062028 | 31 | 0.0 | 0.0 | 0.00 | 0.00 | 0.00 | 78 | 1014.2 | |
| 20260510061025 | 32 | 0.0 | 0.0 | 0.00 | 0.00 | 0.00 | 78 | 1014.2 | |
| 20260510060021 | 32 | 0.0 | 0.0 | 0.00 | 0.00 | 0.00 | 77 | 1014.2 | |
| 20260510055019 | 32 | 0.0 | 0.0 | 0.00 | 0.00 | 0.00 | 77 | 1014.0 | |
| 20260510054035 | 33 | 0.0 | 0.0 | 0.00 | 0.00 | 0.00 | 77 | 1013.8 | |
| 20260510053031 | 33 | 0.0 | 0.0 | 0.00 | 0.00 | 0.00 | 76 | 1013.6 | |
| 20260510052028 | 33 | 0.0 | 0.0 | 0.00 | 0.00 | 0.00 | 76 | 1013.5 | |
| 20260510051024 | 34 | 0.0 | 0.0 | 0.00 | 0.00 | 0.00 | 76 | 1013.5 | |
| 20260510050041 | 34 | 0.0 | 0.0 | 0.00 | 0.00 | 0.00 | 75 | 1013.4 | |
| 20260510045018 | 34 | 0.0 | 0.0 | 0.00 | 0.00 | 0.00 | 75 | 1013.5 | |
| 20260510044034 | 35 | 0.0 | 0.0 | 0.00 | 0.00 | 0.00 | 75 | 1013.4 | |
| 20260510043051 | 36 | 0.0 | 0.0 | 0.00 | 0.00 | 0.00 | 74 | 1013.3 | |
| 20260510042047 | 36 | 84 | 0.0 | 1.0 | 0.00 | 0.00 | 0.00 | 74 | 1013.2 |
| 20260510041024 | 36 | 84 | 1.0 | 2.0 | 0.00 | 0.00 | 0.00 | 73 | 1013.0 |
| 20260510040021 | 37 | 76 | 1.0 | 2.0 | 0.00 | 0.00 | 0.00 | 73 | 1013.0 |
| 20260510035018 | 37 | 83 | 1.0 | 2.0 | 0.00 | 0.00 | 0.00 | 72 | 1012.9 |
| 20260510034035 | 38 | 91 | 1.0 | 2.0 | 0.00 | 0.00 | 0.00 | 73 | 1012.6 |
| 20260510033030 | 39 | 79 | 2.0 | 3.0 | 0.00 | 0.00 | 0.00 | 73 | 1012.6 |
| 20260510032027 | 39 | 77 | 2.0 | 4.0 | 0.00 | 0.00 | 0.00 | 71 | 1012.5 |
| 20260510031024 | 40 | 76 | 2.0 | 3.0 | 0.00 | 0.00 | 0.00 | 70 | 1012.4 |
| 20260510030021 | 40 | 79 | 2.0 | 3.0 | 0.00 | 0.00 | 0.00 | 70 | 1012.1 |
| 20260510025018 | 41 | 79 | 2.0 | 3.0 | 0.00 | 0.00 | 0.00 | 68 | 1011.9 |
| 20260510024034 | 41 | 85 | 2.0 | 3.0 | 0.00 | 0.00 | 0.00 | 66 | 1011.7 |
| 20260510023031 | 42 | 76 | 2.0 | 3.0 | 0.00 | 0.00 | 0.00 | 65 | 1011.4 |
| 20260510022027 | 43 | 115 | 0.0 | 1.0 | 0.00 | 0.00 | 0.00 | 62 | 1011.2 |
| 20260510021023 | 43 | 88 | 1.0 | 3.0 | 0.00 | 0.00 | 0.00 | 61 | 1011.1 |
| 20260510020020 | 44 | 70 | 0.0 | 2.0 | 0.00 | 0.00 | 0.00 | 60 | 1010.8 |
| 20260510015017 | 45 | 86 | 1.0 | 2.0 | 0.00 | 0.00 | 0.00 | 57 | 1010.5 |
| 20260510014031 | 47 | 81 | 1.0 | 2.0 | 0.00 | 0.00 | 0.00 | 53 | 1010.4 |
| 20260510013048 | 49 | 86 | 1.0 | 2.0 | 0.00 | 0.00 | 0.00 | 50 | 1010.2 |
| 20260510012045 | 50 | 82 | 0.0 | 1.0 | 0.00 | 0.00 | 0.00 | 47 | 1009.9 |
| 20260510011022 | 53 | 0.0 | 0.0 | 0.00 | 0.00 | 0.00 | 43 | 1009.6 | |
| 20260510010019 | 54 | 209 | 1.0 | 2.0 | 0.00 | 0.00 | 0.00 | 40 | 1009.5 |
| 20260510005015 | 56 | 225 | 1.0 | 3.0 | 0.00 | 0.00 | 0.00 | 39 | 1009.3 |
| 20260510004031 | 57 | 250 | 2.0 | 7.0 | 0.00 | 0.00 | 0.00 | 38 | 1009.2 |
| 20260510003028 | 58 | 249 | 3.0 | 7.0 | 0.00 | 0.00 | 0.00 | 37 | 1009.2 |
| 20260510002025 | 59 | 242 | 3.0 | 6.0 | 0.00 | 0.00 | 0.00 | 37 | 1009.1 |
| 20260510001021 | 60 | 236 | 3.0 | 6.0 | 0.00 | 0.00 | 0.00 | 38 | 1008.8 |
| 20260510000018 | 61 | 255 | 3.0 | 8.0 | 0.00 | 0.00 | 0.00 | 38 | 1008.7 |
| 20260509235034 | 61 | 237 | 3.0 | 9.0 | 0.00 | 0.00 | 0.00 | 38 | 1008.5 |
| 20260509234031 | 62 | 247 | 4.0 | 14.0 | 0.00 | 0.00 | 0.00 | 38 | 1008.4 |
| 20260509233028 | 62 | 238 | 3.0 | 7.0 | 0.00 | 0.00 | 0.00 | 38 | 1008.2 |
| 20260509232025 | 63 | 254 | 4.0 | 11.0 | 0.00 | 0.00 | 0.00 | 36 | 1008.0 |
| 20260509231021 | 63 | 257 | 4.0 | 9.0 | 0.00 | 0.00 | 0.00 | 36 | 1007.8 |
| 20260509230017 | 64 | 260 | 4.0 | 10.0 | 0.00 | 0.00 | 0.00 | 36 | 1007.7 |
| 20260509225034 | 65 | 255 | 5.0 | 15.0 | 0.00 | 0.00 | 0.00 | 34 | 1007.5 |
| 20260509224030 | 67 | 268 | 5.0 | 11.0 | 0.00 | 0.00 | 0.00 | 33 | 1007.3 |
| 20260509223027 | 68 | 261 | 3.0 | 8.0 | 0.00 | 0.00 | 0.00 | 35 | 1007.2 |
| 20260509222024 | 70 | 263 | 5.0 | 14.0 | 0.00 | 0.00 | 0.00 | 33 | 1007.0 |
| 20260509221021 | 70 | 263 | 3.0 | 8.0 | 0.00 | 0.00 | 0.00 | 36 | 1006.7 |
| 20260509220017 | 71 | 254 | 5.0 | 14.0 | 0.00 | 0.00 | 0.00 | 35 | 1006.8 |
| 20260509215034 | 72 | 257 | 5.0 | 11.0 | 0.00 | 0.00 | 0.00 | 36 | 1006.8 |
| 20260509214031 | 72 | 253 | 4.0 | 15.0 | 0.00 | 0.00 | 0.00 | 34 | 1006.6 |
| 20260509213027 | 73 | 242 | 3.0 | 7.0 | 0.00 | 0.00 | 0.00 | 37 | 1006.7 |
| 20260509212024 | 73 | 276 | 4.0 | 15.0 | 0.00 | 0.00 | 0.00 | 36 | 1006.5 |
| 20260509211040 | 72 | 272 | 4.0 | 10.0 | 0.00 | 0.00 | 0.00 | 37 | 1006.5 |
| 20260509210017 | 71 | 270 | 4.0 | 11.0 | 0.00 | 0.00 | 0.00 | 38 | 1006.5 |
| 20260509205034 | 72 | 284 | 5.0 | 18.0 | 0.00 | 0.00 | 0.00 | 38 | 1006.5 |
| 20260509204030 | 70 | 271 | 4.0 | 8.0 | 0.00 | 0.00 | 0.00 | 40 | 1006.3 |
| 20260509203027 | 69 | 252 | 5.0 | 15.0 | 0.00 | 0.00 | 0.00 | 40 | 1006.3 |
| 20260509202024 | 68 | 273 | 3.0 | 11.0 | 0.00 | 0.00 | 0.00 | 40 | 1006.2 |
| 20260509201020 | 70 | 284 | 5.0 | 14.0 | 0.00 | 0.00 | 0.00 | 40 | 1006.2 |
| 20260509200017 | 70 | 250 | 4.0 | 14.0 | 0.00 | 0.00 | 0.00 | 44 | 1006.0 |
| 20260509195033 | 68 | 277 | 4.0 | 9.0 | 0.00 | 0.00 | 0.00 | 42 | 1005.9 |
| 20260509194030 | 69 | 270 | 6.0 | 17.0 | 0.00 | 0.00 | 0.00 | 44 | 1005.6 |
| 20260509193047 | 71 | 265 | 4.0 | 13.0 | 0.00 | 0.00 | 0.00 | 42 | 1005.7 |
| 20260509192023 | 70 | 254 | 5.0 | 10.0 | 0.00 | 0.00 | 0.00 | 45 | 1005.5 |
| 20260509191020 | 70 | 260 | 4.0 | 9.0 | 0.00 | 0.00 | 0.00 | 43 | 1005.4 |
| 20260509190018 | 70 | 265 | 5.0 | 14.0 | 0.00 | 0.00 | 0.00 | 44 | 1005.4 |
| 20260509185033 | 70 | 243 | 4.0 | 10.0 | 0.00 | 0.00 | 0.00 | 45 | 1005.3 |
| 20260509184032 | 69 | 255 | 5.0 | 14.0 | 0.00 | 0.00 | 0.00 | 48 | 1005.2 |
| 20260509183027 | 66 | 255 | 4.0 | 10.0 | 0.00 | 0.00 | 0.00 | 49 | 1005.3 |
| 20260509182025 | 67 | 272 | 5.0 | 15.0 | 0.00 | 0.00 | 0.00 | 47 | 1005.2 |
| 20260509181020 | 69 | 252 | 4.0 | 14.0 | 0.00 | 0.00 | 0.00 | 48 | 1005.1 |
| 20260509180116 | 69 | 263 | 4.0 | 9.0 | 0.00 | 0.00 | 0.00 | 47 | 1005.0 |
| 20260509175033 | 68 | 260 | 6.0 | 23.0 | 0.00 | 0.00 | 0.00 | 46 | 1005.2 |
| 20260509174029 | 69 | 278 | 6.0 | 17.0 | 0.00 | 0.00 | 0.00 | 45 | 1005.0 |
| 20260509173026 | 67 | 242 | 5.0 | 11.0 | 0.00 | 0.00 | 0.00 | 51 | 1005.0 |